This is the latest recevied weather packets stored in our database for station/object WD4ITN. If no packets are shown the sender has not sent any weather packets the latest 10 day(s).
| Time | Temp. | Humidity | Pressure | Rain* | Wind** | Luminosity | Snow |
|---|---|---|---|---|---|---|---|
| 1778256501 | 14.44° C | 43% | 1014.5 hPa | 0 mm | - | - | - |
| 1778256222 | 14.44° C | 49% | 1014.4 hPa | 0 mm | - | - | - |
| 1778255910 | 13.89° C | 44% | 1014.4 hPa | 0 mm | - | - | - |
| 1778255608 | 14.44° C | 49% | 1014.3 hPa | 0 mm | - | - | - |
| 1778255305 | 14.44° C | 49% | 1014.4 hPa | 0 mm | - | - | - |
| 1778254996 | 13.89° C | 52% | 1014.5 hPa | 0 mm | - | - | - |
| 1778254714 | 13.33° C | 50% | 1013.6 hPa | 0 mm | - | - | - |
| 1778254411 | 13.33° C | 51% | 1013.7 hPa | 0 mm | - | - | - |
| 1778254105 | 13.33° C | 49% | 1013.9 hPa | 0 mm | - | - | - |
| 1778253807 | 13.33° C | 52% | 1013.9 hPa | 0 mm | - | - | - |
| 1778253507 | 12.78° C | 52% | 1013.9 hPa | 0 mm | - | - | - |
| 1778253204 | 12.78° C | 51% | 1014.1 hPa | 0 mm | - | - | - |
| 1778252902 | 12.78° C | 52% | 1014.1 hPa | 0 mm | - | - | - |
| 1778252597 | 12.22° C | 52% | 1014.1 hPa | 0 mm | - | - | - |
| 1778252295 | 12.78° C | 51% | 1014.2 hPa | 0 mm | - | - | - |
| 1778252013 | 12.78° C | 53% | 1014.3 hPa | 0 mm | - | - | - |
| 1778251711 | 12.22° C | 57% | 1014.3 hPa | 0 mm | - | - | - |
| 1778251399 | 12.22° C | 55% | 1014.2 hPa | 0 mm | - | - | - |
| 1778251097 | 11.67° C | 56% | 1014.1 hPa | 0 mm | - | - | - |
| 1778250819 | 11.67° C | 53% | 1014.1 hPa | 0 mm | - | - | - |
| 1778250509 | 11.67° C | 53% | 1014.1 hPa | 0 mm | - | - | - |
| 1778250206 | 11.67° C | 58% | 1014.1 hPa | 0 mm | - | - | - |
| 1778249906 | 11.11° C | 57% | 1014.1 hPa | 0 mm | - | - | - |
| 1778249594 | 11.11° C | 56% | 1014.2 hPa | 0 mm | - | - | - |
| 1778249298 | 11.11° C | 58% | 1014.2 hPa | 0 mm | - | - | - |
* Rain since midnight (hover to see other rain measurements)
** Current wind speed in m/s (hover to see current wind gust speed)